Middletown, PA

5:47 PM EDT on July 20, 2017 (GMT -0400)
Harrisburg International

Weather History for KMDT - March, 2013

Change the Weather History Date:

Monday, March 18, 2013

  Actual Average Record
Temperature  
Mean Temperature 31 °F 42 °F  
Max Temperature 34 °F 51 °F 76 °F (1989)
Min Temperature 27 °F 34 °F 5 °F (1900)
Degree Days  
Heating Degree Days 34 23  
Month to date heating degree days 478 459  
Since 1 July heating degree days 4269 4447  
Cooling Degree Days 0 0  
Month to date cooling degree days 0 0  
Year to date cooling degree days 0 0  
Moisture  
Dew Point 26 °F    
Average Humidity 77    
Maximum Humidity 100    
Minimum Humidity 53    
Precipitation  
Precipitation 0.54 in 0.12 in 1.07 in (1983)
Month to date precipitation 1.88 1.87  
Year to date precipitation 6.83 7.14  
Snow  
Snow 2.30 in 0.20 in 12.10 in (1928)
Month to date snowfall 2.3 3.9  
Since 1 July snowfall 15.6 28.9  
Snow Depth 0.00 in    
Sea Level Pressure  
Sea Level Pressure 30.15 in    
Wind  
Wind Speed 7 mph (East)    
Max Wind Speed 18 mph    
Max Gust Speed 23 mph    
Visibility 5 miles    
Events Rain , Snow    
T = Trace of Precipitation, MM = Missing Value Source: NWS Daily Summary

Daily Weather History Graph

Daily Weather History Graph

Search for Another Location

Airport or City:

Trip Planner

Search our weather history database for the weather conditions in past years. The results will help you decide how hot, cold, wet, or windy it might be!

Date:

Astronomy

Mar. 18, 2013 Rise Set
Actual Time 7:13 AM EDT 7:17 PM EDT
Civil Twilight 6:46 AM EDT 7:44 PM EDT
Nautical Twilight 6:14 AM EDT 8:16 PM EDT
Astronomical Twilight 5:42 AM EDT 8:48 PM EDT
Moon 11:10 AM EDT (3/18) 1:15 AM EDT (3/18)
Length of Visible Light 12h 58m
Length of Day
12h 03m
Waxing Crescent, 40% of the Moon is Illuminated
Mar 18
Waxing Crescent
Mar 19
First Quarter
Mar 27
Full
Apr 3
Last Quarter
Apr 10
New

Hourly Weather History & Observations

Time (EDT) Temp. Windchill Dew Point Humidity Pressure Visibility Wind Dir Wind Speed Gust Speed Precip Events Conditions
12:56 AM 28.9 °F - 21.9 °F 75% 30.29 in 10.0 mi Calm Calm - N/A   Mostly Cloudy
1:56 AM 28.9 °F - 19.9 °F 69% 30.31 in 10.0 mi Calm Calm - N/A   Mostly Cloudy
2:56 AM 28.9 °F - 19.9 °F 69% 30.32 in 10.0 mi Calm Calm - N/A   Overcast
3:56 AM 30.0 °F - 19.9 °F 66% 30.32 in 10.0 mi Calm Calm - N/A   Overcast
4:56 AM 30.0 °F - 19.0 °F 64% 30.32 in 10.0 mi Calm Calm - N/A   Overcast
5:56 AM 30.0 °F 26.5 °F 18.0 °F 61% 30.33 in 10.0 mi East 3.5 mph - N/A   Overcast
6:56 AM 30.0 °F 20.5 °F 17.1 °F 59% 30.34 in 10.0 mi ESE 11.5 mph - N/A   Overcast
7:56 AM 30.0 °F 20.5 °F 16.0 °F 56% 30.32 in 10.0 mi ESE 11.5 mph - N/A   Overcast
8:56 AM 30.9 °F 22.2 °F 16.0 °F 54% 30.33 in 10.0 mi ESE 10.4 mph - N/A   Overcast
9:56 AM 32.0 °F 21.2 °F 18.0 °F 56% 30.31 in 10.0 mi SE 16.1 mph 21.9 mph N/A   Overcast
10:56 AM 32.0 °F 20.8 °F 19.9 °F 61% 30.29 in 10.0 mi ESE 17.3 mph - N/A   Overcast
11:56 AM 33.1 °F 23.4 °F 19.9 °F 59% 30.26 in 10.0 mi SE 13.8 mph - N/A   Overcast
12:56 PM 34.0 °F 26.0 °F 21.0 °F 59% 30.25 in 10.0 mi ESE 10.4 mph - N/A   Overcast
1:56 PM 33.1 °F 24.4 °F 24.1 °F 70% 30.22 in 7.0 mi SE 11.5 mph - 0.00 in   Light Drizzle
2:08 PM 33.8 °F 25.3 °F 24.8 °F 70% 30.19 in 10.0 mi ESE 11.5 mph - 0.00 in   Light Drizzle
2:56 PM 33.1 °F 23.9 °F 25.0 °F 72% 30.16 in 10.0 mi SE 12.7 mph - 0.00 in   Overcast
3:44 PM 32.0 °F 23.0 °F 26.6 °F 80% 30.11 in 2.0 mi ESE 11.5 mph - 0.02 in Rain Light Rain
3:56 PM 32.0 °F 23.0 °F 27.0 °F 82% 30.12 in 2.0 mi ESE 11.5 mph - 0.04 in   Light Ice Pellets
4:05 PM 32.0 °F 22.5 °F 28.4 °F 87% 30.09 in 1.0 mi ESE 12.7 mph - 0.01 in Snow Light Snow
4:33 PM 32.0 °F 27.5 °F 28.4 °F 87% 30.10 in 1.0 mi East 4.6 mph - 0.06 in Snow Light Snow
4:35 PM 32.0 °F 27.5 °F 28.4 °F 87% 30.10 in 0.5 mi ENE 4.6 mph - 0.07 in Snow Light Snow
4:36 PM 30.2 °F 25.4 °F 28.4 °F 93% 30.10 in 0.5 mi East 4.6 mph - 0.07 in Snow Snow
4:47 PM 30.2 °F 26.7 °F 30.2 °F 100% 30.10 in 0.5 mi East 3.5 mph - 0.10 in Snow Snow
4:56 PM 30.9 °F 27.5 °F 30.0 °F 96% 30.11 in 0.5 mi East 3.5 mph - 0.13 in Snow Snow
5:06 PM 30.2 °F 25.4 °F 30.2 °F 100% 30.09 in 1.0 mi East 4.6 mph - 0.02 in Snow Light Snow
5:13 PM 30.2 °F 24.3 °F 30.2 °F 100% 30.08 in 1.0 mi East 5.8 mph - 0.02 in Snow Light Snow
5:50 PM 30.2 °F 25.4 °F 30.2 °F 100% 30.07 in 1.0 mi East 4.6 mph - 0.05 in Snow Light Snow
5:56 PM 30.9 °F 27.5 °F 30.0 °F 96% 30.08 in 1.0 mi East 3.5 mph - 0.06 in Snow Light Snow
6:21 PM 30.2 °F 26.7 °F 30.2 °F 100% 30.06 in 0.8 mi East 3.5 mph - 0.03 in Snow Light Snow
6:31 PM 30.2 °F 26.7 °F 30.2 °F 100% 30.05 in 0.5 mi East 3.5 mph - 0.05 in Snow Snow
6:56 PM 30.9 °F 26.2 °F 30.0 °F 96% 30.04 in 0.5 mi East 4.6 mph - 0.09 in Snow Snow
7:07 PM 30.2 °F 26.7 °F 30.2 °F 100% 30.02 in 0.8 mi East 3.5 mph - 0.02 in Snow Light Snow
7:41 PM 32.0 °F - 30.2 °F 93% 30.03 in 1.0 mi Calm Calm - 0.06 in Snow Light Snow
7:56 PM 32.0 °F 25.6 °F 30.0 °F 92% 30.03 in 1.0 mi East 6.9 mph - 0.08 in Snow Light Snow
8:18 PM 32.0 °F 28.7 °F 30.2 °F 93% 30.00 in 2.0 mi ENE 3.5 mph - 0.02 in Snow Light Snow
8:32 PM 32.0 °F 28.7 °F 30.2 °F 93% 30.00 in 4.0 mi East 3.5 mph - 0.02 in Rain , Snow Light Rain
8:56 PM 32.0 °F - 30.0 °F 92% 30.02 in 4.0 mi Calm Calm - 0.03 in   Light Drizzle
9:56 PM 32.0 °F 28.7 °F 30.9 °F 96% 30.00 in 3.0 mi North 3.5 mph - 0.07 in Rain Light Rain
10:56 PM 32.0 °F - 30.9 °F 96% 29.94 in 3.0 mi Calm Calm - 0.02 in   Light Drizzle
11:56 PM 32.0 °F 28.7 °F 30.0 °F 92% 29.91 in 1.5 mi ENE 3.5 mph - 0.01 in Rain Light Rain